DAL8954 KPIT-KCMH

Flight info

Callsign DAL8954
Flight time 0h 31m
Altitude 16000
Route DILNE TVTRN
Aircraft A320/M-SDE3FGHIRWY/LB1

Departure

Time 2026-05-09 01:10
Airport Pittsburgh International Airport (KPIT)

Arrival

Time 2026-05-09 01:41
Airport John Glenn Columbus International Airport (KCMH)
Time Latitude Longitude Altitude Speed Heading
2026-05-09 00:57 40.49853 -80.24245 1155 ft 0 kts 156°
2026-05-09 01:04 40.49854 -80.24246 1155 ft 4 kts 189°
2026-05-09 01:04 40.49872 -80.24243 1155 ft 4 kts 182°
2026-05-09 01:04 40.49898 -80.24247 1154 ft 4 kts 149°
2026-05-09 01:05 40.49912 -80.24269 1153 ft 3 kts 94°
2026-05-09 01:05 40.49912 -80.24273 1154 ft 0 kts 92°
2026-05-09 01:06 40.49912 -80.24272 1154 ft 1 kts 92°
2026-05-09 01:06 40.49912 -80.24249 1155 ft 4 kts 92°
2026-05-09 01:07 40.49910 -80.24175 1155 ft 10 kts 92°
2026-05-09 01:07 40.49907 -80.24092 1155 ft 8 kts 91°
2026-05-09 01:07 40.49905 -80.23990 1155 ft 16 kts 91°
2026-05-09 01:07 40.49950 -80.23868 1155 ft 17 kts
2026-05-09 01:08 40.50039 -80.23812 1154 ft 16 kts 88°
2026-05-09 01:08 40.50035 -80.23666 1153 ft 17 kts 91°
2026-05-09 01:08 40.50031 -80.23508 1153 ft 17 kts 92°
2026-05-09 01:08 40.50050 -80.23368 1152 ft 16 kts 25°
2026-05-09 01:09 40.50138 -80.23429 1150 ft 16 kts 269°
2026-05-09 01:09 40.50143 -80.23618 1150 ft 40 kts 272°
2026-05-09 01:09 40.50162 -80.24324 1153 ft 111 kts 272°
2026-05-09 01:09 40.50195 -80.25595 1152 ft 165 kts 272°
2026-05-09 01:10 40.50236 -80.27159 1642 ft 172 kts 271°
2026-05-09 01:10 40.50256 -80.28724 2427 ft 171 kts 268°
2026-05-09 01:10 40.50291 -80.30347 2974 ft 183 kts 270°
2026-05-09 01:10 40.50333 -80.31980 3220 ft 194 kts 269°
2026-05-09 01:11 40.50313 -80.33889 3573 ft 221 kts 265°
2026-05-09 01:11 40.50196 -80.36000 4176 ft 238 kts 263°
2026-05-09 01:11 40.50051 -80.38178 5080 ft 242 kts 262°
2026-05-09 01:11 40.49902 -80.40375 6027 ft 245 kts 263°
2026-05-09 01:12 40.49752 -80.42613 6935 ft 247 kts 262°
2026-05-09 01:12 40.49601 -80.44874 7815 ft 250 kts 263°
2026-05-09 01:12 40.49450 -80.47163 8717 ft 253 kts 263°
2026-05-09 01:12 40.49298 -80.49482 9596 ft 256 kts 263°
2026-05-09 01:13 40.49144 -80.51828 10290 ft 266 kts 263°
2026-05-09 01:13 40.48975 -80.54362 10571 ft 289 kts 263°
2026-05-09 01:13 40.48796 -80.57098 10787 ft 312 kts 264°
2026-05-09 01:13 40.48604 -80.60051 10949 ft 335 kts 264°
2026-05-09 01:14 40.48403 -80.63201 11084 ft 356 kts 264°
2026-05-09 01:14 40.48193 -80.66488 11499 ft 365 kts 264°
2026-05-09 01:14 40.47976 -80.69824 12151 ft 368 kts 265°
2026-05-09 01:14 40.47754 -80.73200 12816 ft 371 kts 265°
2026-05-09 01:15 40.47534 -80.76537 13462 ft 373 kts 265°
2026-05-09 01:15 40.47308 -80.79949 14071 ft 376 kts 266°
2026-05-09 01:15 40.47079 -80.83338 14639 ft 378 kts 266°
2026-05-09 01:15 40.46847 -80.86767 15192 ft 380 kts 266°
2026-05-09 01:16 40.46681 -80.90242 15729 ft 381 kts 269°
2026-05-09 01:16 40.46625 -80.93734 15961 ft 383 kts 270°
2026-05-09 01:16 40.46636 -80.97235 16012 ft 384 kts 271°
2026-05-09 01:17 40.46711 -81.04338 16010 ft 390 kts 271°
2026-05-09 01:17 40.46728 -81.07900 16008 ft 391 kts 270°
2026-05-09 01:17 40.46726 -81.11443 16010 ft 389 kts 270°
2026-05-09 01:17 40.46709 -81.14989 16009 ft 388 kts 270°
2026-05-09 01:18 40.46685 -81.18544 16013 ft 389 kts 270°
2026-05-09 01:18 40.46658 -81.22094 16014 ft 389 kts 270°
2026-05-09 01:18 40.46632 -81.25596 16014 ft 389 kts 270°
2026-05-09 01:18 40.46609 -81.29151 16022 ft 389 kts 270°
2026-05-09 01:19 40.46586 -81.32713 16016 ft 390 kts 270°
2026-05-09 01:19 40.46560 -81.36276 16161 ft 391 kts 270°
2026-05-09 01:19 40.46534 -81.39859 16039 ft 392 kts 270°
2026-05-09 01:19 40.46509 -81.43414 16022 ft 389 kts 270°
2026-05-09 01:20 40.46483 -81.46976 16009 ft 389 kts 270°
2026-05-09 01:20 40.46457 -81.50538 16005 ft 390 kts 270°
2026-05-09 01:20 40.46439 -81.52923 16005 ft 390 kts 270°
2026-05-09 01:20 40.46412 -81.56479 15987 ft 391 kts 270°
2026-05-09 01:21 40.46383 -81.60054 15988 ft 392 kts 270°
2026-05-09 01:21 40.46352 -81.63575 15993 ft 392 kts 269°
2026-05-09 01:21 40.46318 -81.67171 15995 ft 392 kts 269°
2026-05-09 01:21 40.46283 -81.70766 15992 ft 393 kts 269°
2026-05-09 01:22 40.46247 -81.74361 15999 ft 393 kts 269°
2026-05-09 01:22 40.46208 -81.77948 16001 ft 394 kts 269°
2026-05-09 01:22 40.46169 -81.81541 16007 ft 394 kts 269°
2026-05-09 01:22 40.46131 -81.85139 16010 ft 394 kts 269°
2026-05-09 01:23 40.46092 -81.88737 16015 ft 394 kts 269°
2026-05-09 01:23 40.46051 -81.92335 16017 ft 394 kts 269°
2026-05-09 01:23 40.46010 -81.95865 15898 ft 386 kts 269°
2026-05-09 01:23 40.45969 -81.99359 15239 ft 381 kts 269°
2026-05-09 01:24 40.45927 -82.02820 14541 ft 378 kts 269°
2026-05-09 01:24 40.45883 -82.06273 14142 ft 377 kts 269°
2026-05-09 01:24 40.45836 -82.09735 13997 ft 378 kts 269°
2026-05-09 01:24 40.45789 -82.13191 14027 ft 379 kts 269°
2026-05-09 01:25 40.45731 -82.16662 14026 ft 379 kts 269°
2026-05-09 01:25 40.45675 -82.20119 14028 ft 379 kts 269°
2026-05-09 01:26 40.45452 -82.33805 14024 ft 379 kts 269°
2026-05-09 01:26 40.45404 -82.37123 14017 ft 346 kts 269°
2026-05-09 01:26 40.45325 -82.40138 14029 ft 316 kts 267°
2026-05-09 01:27 40.45203 -82.42972 14029 ft 308 kts 267°
2026-05-09 01:27 40.45076 -82.45754 14028 ft 297 kts 267°
2026-05-09 01:27 40.44954 -82.48356 14021 ft 277 kts 267°
2026-05-09 01:27 40.44836 -82.50855 14028 ft 272 kts 266°
2026-05-09 01:28 40.44370 -82.53247 14028 ft 274 kts 244°
2026-05-09 01:28 40.43135 -82.55169 13658 ft 281 kts 223°
2026-05-09 01:28 40.41315 -82.56306 12565 ft 304 kts 198°
2026-05-09 01:28 40.39161 -82.56363 11394 ft 327 kts 175°
2026-05-09 01:29 40.36952 -82.55234 10144 ft 349 kts 155°
2026-05-09 01:29 40.34972 -82.53552 9763 ft 331 kts 152°
2026-05-09 01:29 40.33029 -82.52195 9588 ft 294 kts 171°
2026-05-09 01:29 40.31135 -82.51965 9097 ft 267 kts 195°
2026-05-09 01:30 40.29362 -82.52479 8446 ft 259 kts 201°
2026-05-09 01:30 40.27636 -82.53117 7803 ft 255 kts 202°
2026-05-09 01:30 40.25950 -82.53771 7172 ft 251 kts 202°
2026-05-09 01:30 40.24285 -82.54442 6532 ft 248 kts 202°
2026-05-09 01:31 40.22651 -82.55125 5853 ft 246 kts 202°
2026-05-09 01:31 40.21026 -82.55826 5212 ft 244 kts 202°
2026-05-09 01:31 40.19372 -82.56359 5042 ft 252 kts 186°
2026-05-09 01:31 40.17612 -82.56072 5010 ft 259 kts 173°
2026-05-09 01:32 40.15848 -82.55560 5014 ft 260 kts 173°
2026-05-09 01:32 40.14113 -82.55026 5007 ft 259 kts 172°
2026-05-09 01:32 40.12353 -82.54479 5007 ft 260 kts 172°
2026-05-09 01:32 40.10593 -82.53938 5007 ft 260 kts 172°
2026-05-09 01:33 40.08824 -82.53401 5006 ft 260 kts 172°
2026-05-09 01:33 40.07062 -82.52868 5007 ft 260 kts 172°
2026-05-09 01:33 40.05327 -82.52307 4993 ft 246 kts 172°
2026-05-09 01:33 40.03760 -82.51812 5001 ft 219 kts 172°
2026-05-09 01:34 40.02383 -82.51508 4990 ft 186 kts 193°
2026-05-09 01:34 40.01338 -82.52153 5040 ft 158 kts 230°
2026-05-09 01:34 40.00733 -82.53341 5016 ft 157 kts 241°
2026-05-09 01:34 40.00225 -82.54610 5009 ft 159 kts 242°
2026-05-09 01:35 39.99731 -82.55887 4881 ft 156 kts 242°
2026-05-09 01:35 39.99243 -82.57160 4549 ft 158 kts 242°
2026-05-09 01:35 39.98838 -82.58471 4216 ft 159 kts 250°
2026-05-09 01:35 39.98636 -82.59895 3908 ft 161 kts 266°
2026-05-09 01:36 39.98658 -82.61363 3583 ft 162 kts 269°
2026-05-09 01:36 39.98720 -82.62843 3256 ft 164 kts 270°
2026-05-09 01:36 39.98797 -82.64316 3034 ft 161 kts 271°
2026-05-09 01:36 39.98880 -82.65787 3003 ft 164 kts 271°
2026-05-09 01:37 39.98966 -82.67280 3005 ft 165 kts 271°
2026-05-09 01:37 39.99057 -82.68859 3012 ft 187 kts 271°
2026-05-09 01:37 39.99157 -82.70582 3008 ft 193 kts 272°
2026-05-09 01:37 39.99259 -82.72286 2994 ft 178 kts 272°
2026-05-09 01:38 39.99349 -82.73818 2885 ft 164 kts 272°
2026-05-09 01:38 39.99433 -82.75265 2705 ft 156 kts 271°
2026-05-09 01:38 39.99511 -82.76618 2516 ft 142 kts 272°
2026-05-09 01:38 39.99584 -82.77871 2349 ft 136 kts 272°
2026-05-09 01:39 39.99653 -82.79085 2173 ft 135 kts 273°
2026-05-09 01:39 39.99723 -82.80305 1994 ft 135 kts 273°
2026-05-09 01:39 39.99793 -82.81524 1809 ft 135 kts 273°
2026-05-09 01:39 39.99865 -82.82748 1627 ft 136 kts 274°
2026-05-09 01:40 39.99933 -82.83983 1449 ft 137 kts 273°
2026-05-09 01:40 40.00004 -82.85231 1279 ft 138 kts 274°
2026-05-09 01:40 40.00077 -82.86476 1095 ft 138 kts 274°
2026-05-09 01:40 40.00149 -82.87723 888 ft 137 kts 274°
2026-05-09 01:41 40.00216 -82.88914 826 ft 119 kts 274°
2026-05-09 01:41 40.00257 -82.89640 817 ft 26 kts 274°
2026-05-09 01:41 40.00181 -82.89749 817 ft 16 kts 146°
2026-05-09 01:41 40.00162 -82.89662 819 ft 2 kts 95°